Regional Weather Roundup
Issued by NWS Charleston, SC

Current Version | Previous Version | Graphics & Text | Print | Product List | Glossary On
Versions: 1 2 3 4 5 6 7 8 9 10 11 12 13 14 15 16 17 18 19 20 21 22 23 24 25 26 27 28 29 30 31 32 33 34 35 36 37 38 39 40 41 42 43 44 45 46 47 48 49 50
238
ASUS42 KCHS 261428
RWRCHS

REGIONAL WEATHER ROUNDUP
NATIONAL WEATHER SERVICE CHARLESTON SC
1000 AM EDT TUE JUL 26 2016

NOTE: "FAIR" INDICATES FEW OR NO CLOUDS BELOW 12,000 FEET WITH NO
SIGNIFICANT WEATHER AND/OR OBSTRUCTIONS TO VISIBILITY.

NOT ALL STATIONS ARE QUALITY CONTROLLED. USE DATA WITH CAUTION...
ESPECIALLY DEWPOINT OBSERVATIONS.

SCZ027-030-031-034>040-042>050-261500-
...SOUTHEAST SOUTH CAROLINA...

CITY           SKY/WX    TMP DP  RH WIND       PRES   REMARKS
N CHARLESTON   MOSUNNY   87  73  62 W7        30.06F HX  94
WATERFRONT PRK   N/A     84  76  77 SW5       30.05R HX  93
MOUNT PLEASANT FAIR      88  75  66 S8        30.07S HX  97
JOHNS ISLAND   FAIR      88  75  66 NW6       30.07S HX  97
PINOPOLIS        N/A     82  75  78 SW7       29.99S
MONCKS CORNER  FAIR      84  72  65 SW6       30.06S
SUMMERVILLE    FAIR      86  75  70 SW3       30.07F HX  95
BEAUFORT MCAS  MOSUNNY   88  73  61 W8        30.07S HX  95
BEAUFORT ARPT  FAIR      88  72  58 W7        30.07S HX  94
HILTON HEAD IS SUNNY     86  72  62 SW6       30.09R HX  92
WALTERBORO     SUNNY     88  73  62 W5        30.07F HX  96
ALLENDALE      FAIR      86  73  66 VRB5      30.06S HX  93

...SOUTHERN MIDLANDS AND PEE DEE...

CITY           SKY/WX    TMP DP  RH WIND       PRES   REMARKS
GEORGETOWN     FAIR      86  73  66 SW7       30.07S HX  93
KINGSTREE      FAIR      86  72  62 S6        30.05S HX  92
ORANGEBURG     SUNNY     84  74  71 W7        30.06S HX  91
BARNWELL       NOT AVBL
AIKEN          FAIR      86  72  62 W8        30.10S HX  92
MANNING        FAIR      84  73  70 SW6       30.05F HX  91
COLUMBIA       MOSUNNY   87  73  62 SW7       30.04S HX  94
SUMTER         NOT AVBL
FLORENCE       SUNNY     85  74  69 SW9       30.05S HX  92
MYRTLE BEACH   SUNNY     88  70  55 SW12      30.08R HX  92
N MYRTLE BEACH SUNNY     86  74  67 W12       30.05F HX  94

$$

GAZ063-065-086>088-099>101-113>116-118-119-134>141-150-261500-
...SOUTHEAST GEORGIA...

CITY           SKY/WX    TMP DP  RH WIND       PRES   REMARKS
SAVANNAH ARPT  MOSUNNY   86  72  62 W8        30.08S HX  92
HUNTER AAF     NOT AVBL
FORT STEWART   NOT AVBL
STATESBORO     SUNNY     87  76  68 NW6       30.08S HX  97
SYLVANIA       NOT AVBL
CLAXTON        FAIR      87  74  63 W5        30.08S HX  95

...CSRA...CENTRAL AND FAR SOUTHEAST GEORGIA...

CITY           SKY/WX    TMP DP  RH WIND       PRES   REMARKS
THOMSON        NOT AVBL
AUGUSTA-BUSH   SUNNY     87  72  60 VRB6      30.05S HX  93
AUGUSTA-DANIEL MOSUNNY   87  72  60 SW5       30.07F HX  93
SWAINSBORO     FAIR      86  72  62 W6        30.09S HX  92
VIDALIA        SUNNY     86  70  58 SW3       30.09R HX  90
EASTMAN        FAIR      86  64  47 SW3       30.11S
HAZLEHURST     FAIR      87  76  69 CALM      30.07F HX  98
ALMA           MOSUNNY   85  75  72 S5        30.09R HX  93
WAYCROSS       SUNNY     90  77  66 W6        30.08F HX 103
JESUP          FAIR      86  79  79 CALM      30.09S HX  99
BAXLEY         FAIR      86  79  79 W6        30.08F HX  99
BRUNSWICK      SUNNY     88  77  70 CALM      30.09S HX 100
SAINT SIMONS   SUNNY     86  73  65 NW5       30.08R HX  93

$$

SCZ027-028-034-036>038-045-046-048>050-GAZ119-141-261500-
...LAKE AND SUPPLEMENTAL COASTAL OBSERVATIONS...

STATION/POSITION TIME  TEMP    WIND        PRES    WAVE   SWELL
                       AIR SEA DIR/SP/G            HT/PER HT/PER/DIR
                 (UTC) (F)     (DEG/KT/KT) (MB)    (FT/S) (FT/S/D)
WINYAH BAY       1300   83     250/  8     1017.0S
LAKE MURRAY      NOT AVBL
ACE BASIN NERRS  1300   83     240/  2     1018.0S
FORT PULASKI     1400   84 87  280/  7/  9 1019.0S
SAPELO ISLAND    1400   85     230/  2     1019.0S

$$

ANZ835-935-AMZ111-154-330-350-352-354-370-450-454-472-261500-
...C-MAN AND BUOY OBSERVATIONS...

STATION/POSITION TIME  TEMP    WIND        PRES    WAVE   SWELL
                       AIR SEA DIR/SP/G            HT/PER HT/PER/DIR
                 (UTC) (F)     (DEG/KT/KT) (MB)    (FT/S) (FT/S/D)
BUOY 41004       1350   85 86  240/ 12/ 12 1017.8R   2/ 4   2/140/ 8
BUOY 41008       1350   84 86  270/  4/  6 1018.7R   2/ 4   2/170/ 4
FOLLY BEACH CMAN 1400   85     270/  4/  6 1018.4R
CAPERS NEARSHORE 1408   84 83  250/ 10/ 12 1018.1R
FRIPP NEARSHORE  1408   84 86  250/ 10/ 12 1017.9S


STATION/POSITION TIME  TEMP    WIND        PRES    WAVE   SWELL
                       AIR SEA DIR/SP/G            HT/PER HT/PER/DIR
                 (UTC) (F)     (DEG/KT/KT) (MB)    (FT/S) (FT/S/D)
5E ST. MARYS GA  1401      86                N/A     2/ 8
FRYING PAN BUOY  1400   83 85  250/ 12/ 16 1017.9S
BUOY 41025       1350   83 84  250/ 17/ 21 1016.4F   4/ 6
CAPE LOOKOUT NC  1400   83     250/ 18/ 22 1016.7F
BUOY 41002       1350   82 84  200/  4/ 14 1019.1F   2/ 8   2/100/ 8
BUOY 41010       1320   82 86  240/  8/ 12 1019.7R
ST AUGUSTINE FL  1400   81 84  120/  7/  7 1019.9R


$$




USA.gov is the U.S. government's official web portal to all federal, state and local government web resources and services.